TimeCDT,TemperatureF,Dew PointF,Humidity,Sea Level PressureIn,VisibilityMPH,Wind Direction,Wind SpeedMPH,Gust SpeedMPH,PrecipitationIn,Events,Conditions,WindDirDegrees,DateUTC
12:23 AM,28.4,26.6,93,29.87,8.0,East,12.7,-,N/A,,Overcast,100,2013-03-16 05:23:00
12:27 AM,28.4,26.6,93,29.86,9.0,East,12.7,-,N/A,,Overcast,100,2013-03-16 05:27:00
12:40 AM,28.4,26.6,93,29.87,5.0,East,11.5,-,N/A,Snow,Light Snow,100,2013-03-16 05:40:00
12:44 AM,28.4,26.6,93,29.87,3.0,East,12.7,-,N/A,Snow,Light Snow,90,2013-03-16 05:44:00
12:46 AM,28.4,26.6,93,29.87,3.0,East,10.4,-,N/A,Snow,Light Snow,100,2013-03-16 05:46:00
12:47 AM,28.4,26.6,93,29.87,4.0,East,8.1,-,N/A,Snow,Light Snow,100,2013-03-16 05:47:00
12:55 AM,27.9,25.7,92,29.87,4.0,East,10.4,-,0.00,Snow,Light Snow,90,2013-03-16 05:55:00
12:57 AM,28.4,26.6,93,29.87,3.0,East,12.7,19.6,N/A,Snow,Light Snow,90,2013-03-16 05:57:00
1:00 AM,28.4,24.8,86,29.87,3.0,East,12.7,19.6,N/A,Snow,Light Snow,90,2013-03-16 06:00:00
1:09 AM,26.6,24.8,93,29.87,7.0,East,11.5,-,N/A,Snow,Light Snow,100,2013-03-16 06:09:00
1:13 AM,26.6,24.8,93,29.86,10.0,East,10.4,-,N/A,Snow,Light Snow,100,2013-03-16 06:13:00
1:14 AM,26.6,24.8,93,29.86,10.0,East,10.4,-,N/A,Snow,Light Snow,90,2013-03-16 06:14:00
1:22 AM,26.6,24.8,93,29.86,6.0,East,10.4,-,N/A,Snow,Light Snow,100,2013-03-16 06:22:00
1:28 AM,26.6,24.8,93,29.86,4.0,East,9.2,-,N/A,,Mostly Cloudy,100,2013-03-16 06:28:00
1:55 AM,26.4,23.7,90,29.87,9.0,East,9.2,-,0.00,,Overcast,90,2013-03-16 06:55:00
2:09 AM,26.6,23.0,86,29.88,9.0,East,8.1,-,N/A,,Overcast,80,2013-03-16 07:09:00
2:13 AM,26.6,23.0,86,29.88,7.0,East,5.8,-,N/A,,Overcast,80,2013-03-16 07:13:00
2:18 AM,26.6,23.0,86,29.88,7.0,East,6.9,-,N/A,,Overcast,80,2013-03-16 07:18:00
2:21 AM,26.6,24.8,93,29.87,6.0,East,5.8,-,N/A,,Overcast,80,2013-03-16 07:21:00
2:31 AM,26.6,23.0,86,29.87,8.0,East,12.7,-,N/A,,Overcast,100,2013-03-16 07:31:00
2:33 AM,26.6,23.0,86,29.88,9.0,East,11.5,-,N/A,,Overcast,100,2013-03-16 07:33:00
2:37 AM,26.6,23.0,86,29.87,8.0,East,10.4,-,N/A,,Overcast,100,2013-03-16 07:37:00
2:39 AM,26.6,23.0,86,29.87,7.0,East,10.4,-,N/A,,Overcast,100,2013-03-16 07:39:00
2:47 AM,26.6,24.8,93,29.87,7.0,East,6.9,-,N/A,,Overcast,90,2013-03-16 07:47:00
2:53 AM,26.6,24.8,93,29.87,6.0,ENE,6.9,-,N/A,,Light Freezing Drizzle,60,2013-03-16 07:53:00
2:54 AM,26.6,24.8,93,29.87,7.0,ENE,8.1,-,N/A,,Light Freezing Drizzle,60,2013-03-16 07:54:00
2:55 AM,25.9,23.9,92,29.88,7.0,ENE,9.2,-,0.00,,Light Freezing Drizzle,60,2013-03-16 07:55:00
3:02 AM,24.8,23.0,93,29.87,9.0,ENE,9.2,-,N/A,,Light Freezing Drizzle,60,2013-03-16 08:02:00
3:16 AM,24.8,23.0,93,29.88,10.0,East,11.5,-,N/A,,Light Freezing Drizzle,90,2013-03-16 08:16:00
3:17 AM,24.8,23.0,93,29.88,10.0,East,10.4,-,N/A,,Overcast,80,2013-03-16 08:17:00
3:27 AM,24.8,23.0,93,29.89,10.0,ENE,6.9,-,N/A,,Overcast,70,2013-03-16 08:27:00
3:30 AM,24.8,23.0,93,29.89,10.0,ENE,5.8,-,N/A,,Overcast,70,2013-03-16 08:30:00
3:35 AM,24.8,23.0,93,29.88,10.0,NE,8.1,-,N/A,,Overcast,50,2013-03-16 08:35:00
3:55 AM,24.3,22.1,91,29.89,10.0,ENE,4.6,-,0.00,,Overcast,60,2013-03-16 08:55:00
4:07 AM,23.0,21.2,93,29.89,10.0,NE,9.2,-,N/A,,Overcast,50,2013-03-16 09:07:00
4:13 AM,23.0,21.2,93,29.89,10.0,ENE,9.2,-,N/A,,Overcast,60,2013-03-16 09:13:00
4:46 AM,21.2,17.6,86,29.90,10.0,ENE,10.4,-,N/A,,Overcast,70,2013-03-16 09:46:00
4:55 AM,21.9,18.3,86,29.91,10.0,ENE,9.2,-,N/A,,Overcast,70,2013-03-16 09:55:00
5:12 AM,21.2,19.4,93,29.91,10.0,NNE,8.1,-,N/A,,Overcast,30,2013-03-16 10:12:00
5:17 AM,21.2,17.6,86,29.91,10.0,ENE,11.5,-,N/A,,Overcast,60,2013-03-16 10:17:00
5:23 AM,21.2,17.6,86,29.92,10.0,NE,10.4,17.3,N/A,,Overcast,40,2013-03-16 10:23:00
5:55 AM,20.5,16.7,85,29.95,10.0,ENE,8.1,-,N/A,,Overcast,60,2013-03-16 10:55:00
6:16 AM,19.4,17.6,93,29.96,10.0,ENE,9.2,-,N/A,,Overcast,60,2013-03-16 11:16:00
6:25 AM,19.4,17.6,93,29.96,10.0,NE,8.1,-,N/A,,Overcast,50,2013-03-16 11:25:00
6:35 AM,19.4,15.8,86,29.96,10.0,NNE,6.9,-,N/A,,Overcast,30,2013-03-16 11:35:00
6:45 AM,19.4,15.8,86,29.97,10.0,Variable,5.8,-,N/A,,Overcast,0,2013-03-16 11:45:00
6:55 AM,19.4,15.8,86,29.97,10.0,NNE,6.9,-,N/A,,Overcast,30,2013-03-16 11:55:00
7:55 AM,19.2,14.2,81,30.01,10.0,NE,5.8,-,N/A,,Overcast,40,2013-03-16 12:55:00
8:55 AM,19.4,14.0,80,30.04,10.0,NNE,3.5,-,N/A,,Overcast,20,2013-03-16 13:55:00
9:08 AM,19.4,14.0,80,30.00,10.0,NNE,4.6,-,N/A,Snow,Light Snow,20,2013-03-16 14:08:00
9:55 AM,21.2,14.0,74,30.05,10.0,North,5.8,-,N/A,Snow,Light Snow,10,2013-03-16 14:55:00
10:55 AM,23.0,15.8,74,30.07,10.0,North,3.5,-,N/A,,Overcast,360,2013-03-16 15:55:00
11:14 AM,23.0,15.8,74,30.03,10.0,Variable,1.2,-,N/A,,Overcast,0,2013-03-16 16:14:00
11:55 AM,24.8,15.8,69,30.09,10.0,Calm,Calm,-,N/A,,Overcast,0,2013-03-16 16:55:00
12:55 PM,26.6,15.8,64,30.08,10.0,WSW,5.8,-,N/A,,Mostly Cloudy,240,2013-03-16 17:55:00
1:55 PM,28.4,15.8,59,30.08,10.0,WNW,6.9,-,N/A,,Mostly Cloudy,290,2013-03-16 18:55:00
2:55 PM,28.4,17.6,64,30.08,10.0,WNW,12.7,-,N/A,,Overcast,300,2013-03-16 19:55:00
3:14 PM,28.4,17.6,64,30.07,10.0,WNW,11.5,-,N/A,,Overcast,300,2013-03-16 20:14:00
3:55 PM,28.4,17.6,64,30.07,10.0,WNW,12.7,-,N/A,,Overcast,290,2013-03-16 20:55:00
4:55 PM,28.2,17.2,63,30.07,10.0,NW,11.5,20.7,N/A,,Overcast,310,2013-03-16 21:55:00
5:43 PM,28.4,15.8,59,30.06,10.0,WNW,13.8,-,N/A,,Overcast,300,2013-03-16 22:43:00
5:55 PM,28.4,15.3,58,30.06,10.0,NW,10.4,-,N/A,,Mostly Cloudy,310,2013-03-16 22:55:00
6:55 PM,24.8,14.2,64,30.08,10.0,WNW,6.9,-,N/A,,Clear,300,2013-03-16 23:55:00
7:55 PM,19.0,12.4,75,30.12,10.0,WNW,5.8,-,N/A,,Clear,290,2013-03-17 00:55:00
8:55 PM,18.9,11.7,74,30.15,10.0,WNW,8.1,-,N/A,,Clear,290,2013-03-17 01:55:00
9:55 PM,17.6,10.6,74,30.16,10.0,NW,4.6,-,N/A,,Clear,310,2013-03-17 02:55:00
10:55 PM,16.5,10.2,76,30.17,10.0,WNW,4.6,-,N/A,,Clear,300,2013-03-17 03:55:00
11:55 PM,18.5,10.2,70,30.19,10.0,WNW,8.1,-,N/A,,Clear,300,2013-03-17 04:55:00